DW7787 Weather Reports


Display with metric or nautical units.
time (UTC)temp
F
wind
direction
speed
MPH
gust
MPH
rain 1hr
in
rain 24hr
in
rain mn
in
humidity
%
barometer
mb
20260504032901 55 264 0.0 0.0 0.00 0.00 0.00 61 1017.9
20260504032402 55 264 0.0 0.0 0.00 0.00 0.00 61 1017.9
20260504031900 55 264 0.0 0.0 0.00 0.00 0.00 61 1018.0
20260504031353 56 264 0.0 0.0 0.00 0.00 0.00 61 1017.9
20260504031149 56 264 0.0 0.0 0.00 0.00 0.00 60 1017.9
20260504030342 56 264 0.0 0.0 0.00 0.00 0.00 56 1017.9
20260504030139 57 264 0.0 0.0 0.00 0.00 0.00 56 1017.9
20260504025335 57 264 0.0 0.0 0.00 0.00 0.00 55 1017.8
20260504024832 57 264 0.0 1.0 0.00 0.00 0.00 55 1017.9
20260504024332 57 264 0.0 1.0 0.00 0.00 0.00 56 1017.8
20260504023833 57 264 0.0 1.0 0.00 0.00 0.00 55 1017.8
20260504023633 57 244 0.0 1.0 0.00 0.00 0.00 54 1017.7
20260504022830 57 244 0.0 1.0 0.00 0.00 0.00 54 1017.7
20260504022327 58 245 0.0 1.0 0.00 0.00 0.00 53 1017.6
20260504021827 58 245 0.0 1.0 0.00 0.00 0.00 53 1017.5
20260504021330 58 245 0.0 1.0 0.00 0.00 0.00 52 1017.5
20260504021132 58 245 0.0 0.0 0.00 0.00 0.00 52 1017.4
20260504020326 58 245 0.0 0.0 0.00 0.00 0.00 51 1017.3
20260504015825 58 245 0.0 1.0 0.00 0.00 0.00 51 1017.2
20260504015324 58 245 0.0 1.0 0.00 0.00 0.00 51 1017.2
20260504014823 59 245 0.0 0.0 0.00 0.00 0.00 50 1017.2
20260504014327 59 245 0.0 0.0 0.00 0.00 0.00 49 1017.1
20260504013821 59 245 0.0 1.0 0.00 0.00 0.00 49 1017.1
20260504013320 59 245 0.0 1.0 0.00 0.00 0.00 50 1017.0
20260504012826 59 246 0.0 1.0 0.00 0.00 0.00 50 1017.1
20260504012320 60 246 0.0 0.0 0.00 0.00 0.00 50 1017.0
20260504011819 60 246 0.0 0.0 0.00 0.00 0.00 49 1017.0
20260504011611 60 246 0.0 0.0 0.00 0.00 0.00 46 1016.9
20260504011133 61 246 0.0 1.0 0.00 0.00 0.00 45 1016.9
20260504010316 61 246 0.0 1.0 0.00 0.00 0.00 44 1016.8
20260504005816 62 246 0.0 1.0 0.00 0.00 0.00 44 1016.9
20260504005315 62 246 0.0 1.0 0.00 0.00 0.00 45 1016.8
20260504004816 62 246 0.0 0.0 0.00 0.00 0.00 45 1016.8
20260504004317 62 246 0.0 0.0 0.00 0.00 0.00 44 1016.8
20260504003818 62 246 0.0 0.0 0.00 0.00 0.00 44 1016.8
20260504003315 62 246 0.0 0.0 0.00 0.00 0.00 44 1016.7
20260504002813 63 246 0.0 0.0 0.00 0.00 0.00 44 1016.7
20260504002315 63 246 0.0 0.0 0.00 0.00 0.00 44 1016.6
20260504002104 63 246 0.0 0.0 0.00 0.00 0.00 44 1016.6
20260504001704 64 246 0.0 0.0 0.00 0.00 0.00 40 1016.5
20260504001659 63 246 0.0 0.0 0.00 0.00 0.00 42 1016.5
20260504000313 64 246 0.0 1.0 0.00 0.00 0.00 40 1016.4
20260503235312 65 246 0.0 1.0 0.00 0.00 0.00 38 1016.4
20260503234813 65 246 0.0 1.0 0.00 0.00 0.00 38 1016.4
20260503234418 66 246 0.0 1.0 0.00 0.00 0.00 36 1016.4
20260503234358 65 246 0.0 1.0 0.00 0.00 0.00 36 1016.4
20260503233310 66 246 0.0 2.0 0.00 0.00 0.00 37 1016.3
20260503232809 66 200 1.0 3.0 0.00 0.00 0.00 36 1016.4
20260503232552 67 214 1.0 3.0 0.00 0.00 0.00 34 1016.4
20260503231808 67 221 0.0 2.0 0.00 0.00 0.00 33 1016.3
20260503231307 67 230 0.0 2.0 0.00 0.00 0.00 35 1016.4
20260503230810 67 117 1.0 4.0 0.00 0.00 0.00 34 1016.4
20260503230313 67 117 1.0 4.0 0.00 0.00 0.00 34 1016.4
20260503225811 68 242 0.0 2.0 0.00 0.00 0.00 32 1016.4
20260503225312 68 194 1.0 3.0 0.00 0.00 0.00 32 1016.3
20260503224813 69 203 1.0 4.0 0.00 0.00 0.00 31 1016.4
20260503224308 69 202 1.0 4.0 0.00 0.00 0.00 31 1016.5
20260503223806 69 291 1.0 3.0 0.00 0.00 0.00 31 1016.5
20260503223311 69 30 1.0 3.0 0.00 0.00 0.00 31 1016.5
20260503223043 68 243 1.0 4.0 0.00 0.00 0.00 32 1016.5
20260503222614 68 12 1.0 4.0 0.00 0.00 0.00 31 1016.5
20260503221803 68 148 1.0 2.0 0.00 0.00 0.00 32 1016.6
20260503221303 68 268 1.0 5.0 0.00 0.00 0.00 31 1016.6
20260503221058 69 355 1.0 5.0 0.00 0.00 0.00 30 1016.6
20260503220301 69 350 1.0 4.0 0.00 0.00 0.00 30 1016.8
20260503215802 69 254 2.0 4.0 0.00 0.00 0.00 29 1016.7
20260503215300 69 239 2.0 6.0 0.00 0.00 0.00 29 1016.8
20260503214801 70 225 2.0 7.0 0.00 0.00 0.00 29 1016.8
20260503214255 70 239 2.0 7.0 0.00 0.00 0.00 30 1016.9
20260503213749 70 337 2.0 5.0 0.00 0.00 0.00 29 1017.0
20260503213242 70 14 1.0 5.0 0.00 0.00 0.00 29 1017.0
20260503212737 69 227 1.0 4.0 0.00 0.00 0.00 31 1016.9
20260503212232 69 74 2.0 9.0 0.00 0.00 0.00 32 1017.0
20260503211731 69 348 2.0 9.0 0.00 0.00 0.00 30 1017.1
20260503211232 70 230 1.0 3.0 0.00 0.00 0.00 32 1017.1
20260503210731 69 97 2.0 9.0 0.00 0.00 0.00 30 1017.1
20260503210230 69 236 2.0 9.0 0.00 0.00 0.00 30 1017.1
20260503205731 69 188 2.0 7.0 0.00 0.00 0.00 31 1017.1
20260503205229 69 242 3.0 9.0 0.00 0.00 0.00 29 1017.1
20260503205037 69 0 3.0 9.0 0.00 0.00 0.00 30 1017.2
20260503204229 70 265 2.0 9.0 0.00 0.00 0.00 30 1017.3
20260503203729 69 26 1.0 5.0 0.00 0.00 0.00 29 1017.3
20260503203231 69 197 1.0 8.0 0.00 0.00 0.00 31 1017.5
20260503202730 70 16 2.0 8.0 0.00 0.00 0.00 29 1017.5
20260503202231 70 121 2.0 6.0 0.00 0.00 0.00 32 1017.5
20260503201730 69 265 1.0 6.0 0.00 0.00 0.00 33 1017.6
20260503201230 69 252 2.0 6.0 0.00 0.00 0.00 33 1017.7
20260503200730 68 82 3.0 7.0 0.00 0.00 0.00 32 1017.7
20260503200230 68 51 2.0 7.0 0.00 0.00 0.00 32 1017.8
20260503200037 68 223 2.0 9.0 0.00 0.00 0.00 35 1017.9
20260503195230 68 253 3.0 9.0 0.00 0.00 0.00 31 1017.9
20260503194730 68 53 2.0 8.0 0.00 0.00 0.00 32 1017.9
20260503194231 68 234 2.0 6.0 0.00 0.00 0.00 32 1018.0
20260503193730 68 300 2.0 5.0 0.00 0.00 0.00 33 1018.0
20260503193230 68 58 2.0 7.0 0.00 0.00 0.00 32 1018.1
20260503192730 68 239 2.0 7.0 0.00 0.00 0.00 32 1018.1
20260503192231 67 43 3.0 8.0 0.00 0.00 0.00 33 1018.3
20260503191729 67 284 3.0 10.0 0.00 0.00 0.00 31 1018.4
20260503191231 68 12 2.0 10.0 0.00 0.00 0.00 31 1018.4
20260503190729 67 77 2.0 12.0 0.00 0.00 0.00 31 1018.6
20260503190233 68 327 3.0 12.0 0.00 0.00 0.00 31 1018.6
20260503185732 67 266 3.0 11.0 0.00 0.00 0.00 31 1018.7
20260503185233 67 48 3.0 11.0 0.00 0.00 0.00 33 1018.8
20260503185041 67 313 3.0 10.0 0.00 0.00 0.00 32 1018.9
20260503184231 67 325 2.0 8.0 0.00 0.00 0.00 33 1018.9
20260503183725 67 300 3.0 10.0 0.00 0.00 0.00 32 1018.8
20260503183219 66 336 2.0 10.0 0.00 0.00 0.00 32 1019.0
20260503182714 65 257 1.0 7.0 0.00 0.00 0.00 33 1019.1
20260503182208 66 98 2.0 8.0 0.00 0.00 0.00 34 1019.1
20260503181704 66 177 3.0 12.0 0.00 0.00 0.00 35 1019.2
20260503181508 65 5 2.0 12.0 0.00 0.00 0.00 34 1019.2
20260503180705 65 205 2.0 8.0 0.00 0.00 0.00 34 1019.4
20260503180205 66 300 2.0 8.0 0.00 0.00 0.00 33 1019.6
20260503175706 64 340 2.0 8.0 0.00 0.00 0.00 38 1019.6
20260503175204 63 75 3.0 12.0 0.00 0.00 0.00 37 1019.6
20260503174705 64 238 3.0 12.0 0.00 0.00 0.00 34 1019.8
20260503174206 64 342 3.0 9.0 0.00 0.00 0.00 35 1019.9
20260503173704 64 212 3.0 9.0 0.00 0.00 0.00 35 1019.9
20260503173505 63 226 3.0 9.0 0.00 0.00 0.00 35 1019.9
20260503172704 63 59 3.0 9.0 0.00 0.00 0.00 35 1020.0
20260503172204 64 338 3.0 9.0 0.00 0.00 0.00 35 1020.1
20260503171704 64 184 2.0 9.0 0.00 0.00 0.00 35 1020.2
20260503171202 64 15 2.0 7.0 0.00 0.00 0.00 35 1020.3
20260503170700 63 314 2.0 9.0 0.00 0.00 0.00 34 1020.4
20260503170201 62 337 3.0 9.0 0.00 0.00 0.00 36 1020.4
20260503160145 59 332 2.0 8.0 0.00 0.00 0.00 40 1020.8
20260503150727 57 76 2.0 7.0 0.00 0.00 0.00 43 1021.2
20260503140130 54 91 3.0 15.0 0.00 0.00 0.00 45 1021.0
20260503131131 51 337 3.0 10.0 0.00 0.00 0.00 56 1020.9
20260503130627 51 0 3.0 10.0 0.00 0.00 0.00 57 1020.8
20260503130126 50 78 2.0 10.0 0.00 0.00 0.00 60 1020.8
20260503110532 41 329 0.0 1.0 0.00 0.00 0.00 81 1020.0
20260503090502 42 331 0.0 3.0 0.00 0.01 0.00 78 1018.1
20260503081436 43 200 0.0 2.0 0.00 0.01 0.00 79 1017.8
20260503080936 43 200 1.0 2.0 0.00 0.01 0.00 78 1017.8
20260503080431 43 200 0.0 2.0 0.00 0.01 0.00 77 1017.8
20260503080233 44 325 0.0 1.0 0.00 0.01 0.00 75 1017.6
20260503072932 44 306 0.0 1.0 0.00 0.01 0.00 72 1017.5
20260503072903 44 298 0.0 1.0 0.00 0.01 0.00 73 1017.3
20260503072523 44 298 0.0 1.0 0.00 0.01 0.00 72 1017.5
20260503071430 43 298 0.0 1.0 0.00 0.01 0.00 73 1017.3
20260503070936 43 298 0.0 1.0 0.00 0.01 0.00 73 1017.2
20260503070431 43 294 0.0 1.0 0.00 0.01 0.00 74 1017.2
20260503054913 43 282 0.0 0.0 0.00 0.01 0.00 78 1017.0
20260503054412 43 282 0.0 1.0 0.00 0.01 0.00 78 1017.0
20260503053916 43 282 0.0 1.0 0.00 0.01 0.00 78 1017.0
20260503053411 44 282 0.0 0.0 0.00 0.01 0.00 78 1016.9
20260503053203 44 282 0.0 0.0 0.00 0.01 0.00 78 1016.9
20260503052703 44 282 0.0 1.0 0.00 0.01 0.00 78 1016.9
20260503051908 44 282 0.0 1.0 0.00 0.01 0.00 79 1017.0
20260503051407 44 282 0.0 1.0 0.00 0.01 0.00 79 1016.9
20260503050907 44 282 0.0 1.0 0.00 0.01 0.00 78 1016.9
20260503050407 45 282 0.0 1.0 0.00 0.01 0.00 78 1016.8
20260503045904 45 282 0.0 0.0 0.00 0.01 0.00 78 1016.8
20260503045401 45 282 0.0 0.0 0.00 0.01 0.00 77 1016.8
20260503044902 45 282 0.0 0.0 0.00 0.01 0.00 77 1016.7
20260503044403 45 282 0.0 0.0 0.00 0.01 0.00 76 1016.7
20260503043902 46 282 0.0 0.0 0.00 0.01 0.00 76 1016.8
20260503043405 46 282 0.0 0.0 0.00 0.01 0.00 75 1016.7
20260503042902 46 282 0.0 1.0 0.00 0.01 0.00 75 1016.6
20260503042402 46 282 0.0 1.0 0.00 0.01 0.00 76 1016.6
20260503041903 46 282 0.0 1.0 0.00 0.01 0.00 75 1016.6
20260503041402 46 282 0.0 1.0 0.00 0.01 0.00 75 1016.5
20260503040903 46 282 0.0 1.0 0.00 0.01 0.00 74 1016.5
20260503040401 47 282 0.0 1.0 0.00 0.01 0.00 74 1016.4
20260503035903 47 282 0.0 0.0 0.00 0.01 0.01 74 1016.5
20260503035357 47 282 0.0 0.0 0.00 0.01 0.01 73 1016.5
20260503034854 47 282 0.0 0.0 0.00 0.01 0.01 73 1016.4
20260503034355 47 282 0.0 0.0 0.00 0.01 0.01 73 1016.3
20260503034147 48 282 0.0 0.0 0.00 0.01 0.01 73 1016.2
20260503033351 48 282 0.0 0.0 0.00 0.01 0.01 73 1016.3